KO4T-4 Weather Reports


time (UTC)temp
F
wind
direction
speed
knots
gust
knots
rain 1hr
in
rain 24hr
in
rain mn
in
humidity
%
barometer
mb
20260508185007 71 185 1.7 8.7 0.00 0.00 0.00 43 1015.1
20260508184506 72 213 0.9 8.7 0.00 0.00 0.00 44 1015.0
20260508184006 72 244 0.9 3.5 0.00 0.00 0.00 43 1015.1
20260508183506 72 195 0.9 5.2 0.00 0.00 0.00 46 1015.1
20260508183006 71 200 1.7 5.2 0.00 0.00 0.00 47 1015.1
20260508182505 71 205 1.7 7.0 0.00 0.00 0.00 47 1015.2
20260508182006 71 171 0.9 7.0 0.00 0.00 0.00 45 1015.3
20260508181506 70 83 1.7 4.3 0.00 0.00 0.00 47 1015.5
20260508181005 70 136 1.7 4.3 0.00 0.00 0.00 46 1015.5
20260508180506 70 245 1.7 4.3 0.00 0.00 0.00 48 1015.7
20260508180006 69 250 1.7 5.2 0.00 0.00 0.00 48 1015.7
20260508175505 69 221 1.7 6.1 0.00 0.00 0.00 47 1015.7
20260508175006 69 222 1.7 6.1 0.00 0.00 0.00 47 1015.6
20260508174506 69 229 0.9 6.1 0.00 0.00 0.00 44 1015.7
20260508174006 69 208 0.9 6.1 0.00 0.00 0.00 47 1015.8
20260508173506 69 66 1.7 3.5 0.00 0.00 0.00 46 1015.8
20260508173006 68 230 1.7 3.5 0.00 0.00 0.00 46 1015.9
20260508172506 68 208 1.7 6.1 0.00 0.00 0.00 46 1016.0
20260508172005 69 204 1.7 6.1 0.00 0.00 0.00 45 1016.0
20260508171507 68 244 1.7 3.5 0.00 0.00 0.00 49 1016.1
20260508171006 68 263 1.7 4.3 0.00 0.00 0.00 49 1016.3
20260508170505 68 274 1.7 5.2 0.00 0.00 0.00 47 1016.3
20260508170006 68 260 1.7 5.2 0.00 0.00 0.00 46 1016.4
20260508165506 68 206 1.7 5.2 0.00 0.00 0.00 47 1016.5
20260508165006 67 194 1.7 5.2 0.00 0.00 0.00 47 1016.6
20260508164506 66 310 1.7 4.3 0.00 0.00 0.00 48 1016.5
20260508164005 66 228 1.7 4.3 0.00 0.00 0.00 45 1016.6
20260508163506 67 274 1.7 4.3 0.00 0.00 0.00 45 1016.7
20260508163005 66 303 0.9 6.1 0.00 0.00 0.00 46 1016.8
20260508162506 68 220 0.9 6.1 0.00 0.00 0.00 45 1016.8
20260508162006 68 114 0.9 2.6 0.00 0.00 0.00 43 1016.9
20260508161506 67 67 0.9 3.5 0.00 0.00 0.00 44 1016.9
20260508161006 66 78 1.7 3.5 0.00 0.00 0.00 45 1017.1
20260508160506 66 99 1.7 5.2 0.00 0.00 0.00 47 1017.2
20260508160005 66 231 1.7 5.2 0.00 0.00 0.00 47 1017.3
20260508155506 66 253 0.9 4.3 0.00 0.00 0.00 50 1017.4
20260508155006 66 244 0.9 5.2 0.00 0.00 0.00 51 1017.5
20260508154506 66 224 0.9 5.2 0.00 0.00 0.00 51 1017.6
20260508154005 65 286 0.9 5.2 0.00 0.00 0.00 51 1017.6
20260508153506 65 303 0.9 4.3 0.00 0.00 0.00 53 1017.6
20260508153005 65 308 0.9 3.5 0.00 0.00 0.00 52 1017.5
20260508152505 64 306 1.7 5.2 0.00 0.00 0.00 50 1017.5
20260508152005 64 347 1.7 5.2 0.00 0.00 0.00 55 1017.5
20260508151506 64 329 0.9 5.2 0.00 0.00 0.00 51 1017.6
20260508151006 64 226 0.9 5.2 0.00 0.00 0.00 51 1017.6
20260508150505 63 53 0.9 3.5 0.00 0.00 0.00 51 1017.6
20260508150006 63 326 0.9 4.3 0.00 0.00 0.00 52 1017.8
20260508145506 63 244 0.9 4.3 0.00 0.00 0.00 51 1017.9
20260508145005 63 237 0.9 4.3 0.00 0.00 0.00 51 1017.8
20260508144506 64 270 0.9 4.3 0.00 0.00 0.00 55 1017.8
20260508144006 63 312 0.0 2.6 0.00 0.00 0.00 52 1017.9
20260508143505 64 14 0.0 1.7 0.00 0.00 0.00 54 1018.0
20260508143006 64 50 0.0 3.5 0.00 0.00 0.00 54 1017.9
20260508142505 62 36 0.0 3.5 0.00 0.00 0.00 57 1018.0
20260508142006 62 16 0.9 2.6 0.00 0.00 0.00 55 1018.0
20260508141506 61 313 0.9 2.6 0.00 0.00 0.00 56 1018.0
20260508141005 60 292 0.9 2.6 0.00 0.00 0.00 53 1018.0
20260508140505 60 291 0.9 2.6 0.00 0.00 0.00 55 1017.9
20260508140006 60 290 0.9 4.3 0.00 0.00 0.00 57 1018.0
20260508135506 60 286 0.0 4.3 0.00 0.00 0.00 58 1018.0
20260508135005 60 282 0.0 2.6 0.00 0.00 0.00 56 1017.9
20260508134506 60 297 0.0 1.7 0.00 0.00 0.00 54 1017.9
20260508134005 59 266 0.0 1.7 0.00 0.00 0.00 59 1018.0
20260508133506 59 295 0.0 0.9 0.00 0.00 0.00 63 1018.0
20260508133005 59 308 0.0 0.9 0.00 0.00 0.00 65 1018.0
20260508132506 58 329 0.0 1.7 0.00 0.00 0.00 67 1017.9
20260508132005 58 300 0.0 1.7 0.00 0.00 0.00 68 1018.0
20260508131506 57 293 0.0 0.9 0.00 0.00 0.00 71 1018.0
20260508131005 57 292 0.0 1.7 0.00 0.00 0.00 72 1018.0
20260508130506 57 274 0.0 1.7 0.00 0.00 0.00 71 1017.8
20260508130006 56 268 0.9 1.7 0.00 0.00 0.00 72 1017.8
20260508125506 56 275 0.9 1.7 0.00 0.00 0.00 75 1017.8
20260508125005 55 284 0.0 1.7 0.00 0.00 0.00 79 1017.8
20260508124506 55 284 0.0 1.7 0.00 0.00 0.00 77 1017.8
20260508124005 55 280 0.0 0.9 0.00 0.00 0.00 77 1017.7
20260508123505 55 271 0.0 0.9 0.00 0.00 0.00 79 1017.7
20260508123006 56 0 0.0 0.0 0.00 0.00 0.00 78 1017.7
20260508122505 57 0 0.0 0.0 0.00 0.00 0.00 81 1017.7
20260508122006 56 0 0.0 0.0 0.00 0.00 0.00 85 1017.7
20260508121505 55 0 0.0 0.0 0.00 0.00 0.00 88 1017.6
20260508121006 54 0 0.0 0.0 0.00 0.01 0.00 90 1017.6
20260508120505 53 0 0.0 0.0 0.00 0.02 0.00 92 1017.5
20260508120005 52 0 0.0 0.0 0.00 0.02 0.00 94 1017.4
20260508115505 50 0 0.0 0.0 0.00 0.04 0.00 95 1017.3
20260508115006 49 0 0.0 0.0 0.00 0.06 0.00 95 1017.3
20260508114505 48 0 0.0 0.0 0.00 0.07 0.00 95 1017.2
20260508114006 47 0 0.0 0.0 0.00 0.08 0.00 95 1017.2
20260508113505 46 0 0.0 0.0 0.00 0.10 0.00 95 1017.0
20260508113005 46 0 0.0 0.0 0.00 0.11 0.00 96 1016.9
20260508112505 46 0 0.0 0.0 0.00 0.13 0.00 96 1016.8
20260508112006 45 0 0.0 0.0 0.00 0.13 0.00 96 1016.7
20260508111505 44 0 0.0 0.0 0.00 0.14 0.00 96 1016.6
20260508111006 44 0 0.0 0.0 0.00 0.14 0.00 96 1016.4
20260508110505 44 0 0.0 0.0 0.00 0.14 0.00 96 1016.3
20260508110005 43 0 0.0 0.0 0.00 0.14 0.00 96 1016.4
20260508105506 43 0 0.0 0.0 0.00 0.14 0.00 96 1016.4
20260508105005 43 0 0.0 0.0 0.00 0.14 0.00 96 1016.4
20260508104505 43 0 0.0 0.0 0.00 0.14 0.00 96 1016.1
20260508104005 43 0 0.0 0.0 0.00 0.14 0.00 96 1016.0
20260508103505 43 0 0.0 0.0 0.00 0.14 0.00 96 1015.9
20260508103006 43 0 0.0 0.0 0.00 0.14 0.00 96 1015.8
20260508102505 44 0 0.0 0.0 0.00 0.14 0.00 96 1015.7
20260508102006 43 0 0.0 0.0 0.00 0.14 0.00 95 1015.6
20260508101506 43 0 0.0 0.0 0.00 0.14 0.00 95 1015.5
20260508101005 44 0 0.0 0.0 0.00 0.14 0.00 95 1015.5
20260508100505 44 0 0.0 0.0 0.00 0.14 0.00 95 1015.5
20260508100005 44 139 0.0 0.9 0.00 0.14 0.00 96 1015.4
20260508095505 44 139 0.0 0.9 0.00 0.14 0.00 95 1015.4
20260508095005 44 139 0.0 0.9 0.00 0.14 0.00 95 1015.4
20260508094506 44 0 0.0 0.0 0.00 0.14 0.00 95 1015.4
20260508094005 44 0 0.0 0.0 0.00 0.14 0.00 95 1015.3
20260508093505 44 0 0.0 0.0 0.00 0.14 0.00 95 1015.3
20260508093006 44 0 0.0 0.0 0.00 0.14 0.00 95 1015.3
20260508092505 44 0 0.0 0.0 0.00 0.14 0.00 95 1015.2
20260508092005 44 0 0.0 0.0 0.00 0.14 0.00 95 1015.3
20260508091505 44 0 0.0 0.0 0.00 0.14 0.00 95 1015.2
20260508091006 44 0 0.0 0.0 0.00 0.14 0.00 95 1015.2
20260508090505 44 0 0.0 0.0 0.00 0.14 0.00 95 1015.2
20260508090005 44 0 0.0 0.0 0.00 0.14 0.00 95 1015.3
20260508085505 45 0 0.0 0.0 0.00 0.14 0.00 95 1015.3
20260508085005 45 0 0.0 0.0 0.00 0.14 0.00 95 1015.1
20260508084506 45 0 0.0 0.0 0.00 0.14 0.00 95 1015.1
20260508084005 45 0 0.0 0.0 0.00 0.14 0.00 95 1015.1
20260508083505 45 110 0.0 0.9 0.00 0.15 0.00 95 1015.2
20260508083006 45 95 0.0 0.9 0.00 0.15 0.00 94 1015.1
20260508082505 45 84 0.0 0.9 0.00 0.16 0.00 94 1015.0
20260508082005 46 0 0.0 0.0 0.00 0.16 0.00 94 1014.9
20260508081505 46 0 0.0 0.0 0.00 0.16 0.00 94 1014.9
20260508081006 46 0 0.0 0.0 0.00 0.16 0.00 94 1015.0
20260508080505 46 0 0.0 0.0 0.00 0.16 0.00 94 1014.9
20260508080005 46 0 0.0 0.0 0.00 0.16 0.00 94 1015.0
20260508075505 46 0 0.0 0.0 0.00 0.16 0.00 94 1015.0
20260508075005 46 0 0.0 0.0 0.00 0.16 0.00 94 1014.9
20260508074505 46 0 0.0 0.0 0.00 0.16 0.00 94 1014.9
20260508074005 46 0 0.0 0.0 0.00 0.16 0.00 94 1014.8
20260508073506 46 0 0.0 0.0 0.00 0.16 0.00 93 1014.8
20260508073005 46 243 0.0 0.9 0.00 0.16 0.00 93 1014.8
20260508072505 46 243 0.0 0.9 0.00 0.16 0.00 93 1014.8
20260508072005 47 0 0.0 0.0 0.00 0.16 0.00 93 1014.7
20260508071506 47 208 0.0 0.9 0.00 0.16 0.00 93 1014.8
20260508071005 47 208 0.0 0.9 0.00 0.16 0.00 93 1014.8
20260508070505 47 95 0.0 0.9 0.00 0.16 0.00 92 1014.8
20260508070006 47 95 0.0 0.9 0.00 0.16 0.00 92 1014.7
20260508065505 47 0 0.0 0.0 0.00 0.16 0.00 92 1014.8
20260508065005 47 0 0.0 0.0 0.00 0.16 0.00 92 1014.6
20260508064506 48 0 0.0 0.0 0.00 0.16 0.00 92 1014.6
20260508064005 48 73 0.0 1.7 0.00 0.16 0.00 92 1014.7
20260508063505 48 75 0.0 1.7 0.00 0.16 0.00 93 1014.5
20260508063006 47 92 0.0 0.9 0.00 0.16 0.00 93 1014.5
20260508062505 48 94 0.0 0.9 0.00 0.16 0.00 93 1014.5
20260508062005 48 94 0.0 0.9 0.00 0.16 0.00 93 1014.5
20260508061506 48 0 0.0 0.0 0.00 0.16 0.00 92 1014.4
20260508061005 48 0 0.0 0.0 0.00 0.16 0.00 91 1014.4
20260508060505 48 0 0.0 0.0 0.00 0.16 0.00 92 1014.4
20260508060006 48 0 0.0 0.0 0.00 0.16 0.00 92 1014.5
20260508055505 48 104 0.0 2.6 0.00 0.16 0.00 92 1014.5
20260508055005 48 96 0.0 2.6 0.00 0.16 0.00 92 1014.6
20260508054506 48 90 0.0 2.6 0.00 0.17 0.00 92 1014.5
20260508054005 48 106 0.0 0.9 0.00 0.19 0.00 92 1014.5
20260508053505 48 122 0.0 0.9 0.00 0.19 0.00 92 1014.6
20260508053005 48 0 0.0 0.0 0.00 0.20 0.00 92 1014.4
20260508052505 48 0 0.0 0.0 0.00 0.20 0.00 92 1014.3
20260508052005 48 0 0.0 0.0 0.00 0.20 0.00 91 1014.4
20260508051506 49 0 0.0 0.0 0.00 0.20 0.00 91 1014.4
20260508051005 49 0 0.0 0.0 0.00 0.21 0.00 91 1014.3
20260508050505 49 0 0.0 0.0 0.00 0.22 0.00 90 1014.3
20260508050006 49 0 0.0 0.0 0.00 0.22 0.00 90 1014.3
20260508045505 49 0 0.0 0.0 0.00 0.24 0.00 90 1014.3
20260508045005 49 103 0.0 0.9 0.00 0.26 0.00 90 1014.3
20260508044505 50 103 0.0 0.9 0.00 0.27 0.00 89 1014.2
20260508044005 50 103 0.0 0.9 0.00 0.27 0.00 89 1014.2
20260508043505 50 73 0.0 0.9 0.00 0.27 0.00 89 1014.1
20260508043005 50 101 0.0 1.7 0.00 0.28 0.00 89 1014.2
20260508042505 50 98 0.0 1.7 0.00 0.28 0.00 88 1014.3
20260508042006 50 59 0.0 0.9 0.00 0.28 0.00 88 1014.2
20260508041505 51 61 0.0 0.9 0.00 0.29 0.00 87 1014.2
20260508041005 51 61 0.0 0.9 0.00 0.29 0.00 87 1014.2
20260508040505 50 0 0.0 0.0 0.00 0.29 0.00 87 1014.2
20260508040007 51 0 0.0 0.0 0.00 0.29 0.00 87 1014.2
20260508035505 51 91 0.0 0.9 0.00 0.29 0.29 87 1014.2
20260508035005 51 91 0.0 0.9 0.00 0.29 0.29 87 1014.2
20260508034506 51 0 0.0 0.0 0.00 0.29 0.29 86 1014.2
20260508034005 51 0 0.0 0.0 0.00 0.29 0.29 86 1014.3
20260508033505 51 91 0.0 1.7 0.00 0.29 0.29 86 1014.4
20260508033005 52 91 0.0 1.7 0.00 0.29 0.29 85 1014.4
20260508032505 52 95 0.0 0.9 0.00 0.29 0.29 85 1014.3
20260508032005 52 99 0.0 0.9 0.00 0.29 0.29 84 1014.2
20260508031505 52 99 0.0 0.9 0.00 0.29 0.29 84 1014.2
20260508031005 52 0 0.0 0.0 0.00 0.29 0.29 82 1014.3
20260508030505 52 0 0.0 0.0 0.00 0.29 0.29 82 1014.2
20260508030005 53 0 0.0 0.0 0.00 0.29 0.29 82 1014.2
20260508025505 53 0 0.0 0.0 0.00 0.29 0.29 80 1014.2
20260508025005 53 0 0.0 0.0 0.00 0.29 0.29 80 1014.1
20260508024505 53 41 0.0 0.9 0.00 0.29 0.29 80 1014.1
20260508024005 53 41 0.0 0.9 0.00 0.29 0.29 79 1013.9
20260508023505 54 0 0.0 0.0 0.00 0.29 0.29 78 1013.9
20260508023005 54 63 0.0 1.7 0.00 0.30 0.29 78 1013.8
20260508022505 54 63 0.0 1.7 0.00 0.30 0.29 77 1013.7
20260508022005 54 273 0.9 3.5 0.00 0.31 0.29 76 1013.7
20260508021505 55 280 0.9 4.3 0.00 0.31 0.29 76 1013.7
20260508021005 55 282 0.0 4.3 0.00 0.31 0.29 76 1013.7
20260508020505 54 293 0.0 1.7 0.00 0.31 0.29 77 1013.7
20260508020005 55 323 0.0 1.7 0.00 0.31 0.29 77 1013.7
20260508015505 55 328 0.0 1.7 0.00 0.31 0.29 76 1013.6
20260508015005 55 315 0.0 1.7 0.00 0.31 0.29 75 1013.5
20260508014505 55 257 0.0 0.9 0.00 0.31 0.29 76 1013.4
20260508014005 55 0 0.0 0.0 0.00 0.31 0.29 76 1013.2
20260508013505 55 223 0.0 0.9 0.00 0.31 0.29 75 1013.1
20260508013006 56 223 0.0 0.9 0.00 0.31 0.29 74 1013.0
20260508012505 56 0 0.0 0.0 0.00 0.32 0.29 71 1012.9
20260508012005 57 0 0.0 0.0 0.00 0.33 0.29 71 1012.9
20260508011505 57 0 0.0 0.0 0.00 0.35 0.29 72 1012.9
20260508011005 57 0 0.0 0.0 0.00 0.36 0.29 68 1012.6
20260508010505 58 0 0.0 0.0 0.00 0.38 0.29 68 1012.6
20260508010005 59 323 0.9 0.9 0.00 0.38 0.29 67 1012.5
20260508005505 59 285 0.9 2.6 0.00 0.38 0.29 64 1012.5
20260508005005 59 288 1.7 2.6 0.00 0.38 0.29 63 1012.4
20260508004505 60 292 1.7 4.3 0.00 0.38 0.29 64 1012.4
20260508004005 60 293 1.7 4.3 0.00 0.38 0.29 63 1012.3
20260508003505 60 302 1.7 4.3 0.00 0.39 0.29 63 1012.2
20260508003006 61 306 1.7 6.1 0.00 0.40 0.29 63 1012.2
20260508002505 61 316 0.9 6.1 0.00 0.41 0.29 63 1012.1
20260508002005 62 320 1.7 4.3 0.00 0.43 0.29 64 1012.1
20260508001505 62 311 1.7 4.3 0.00 0.44 0.29 63 1012.1
20260508001005 63 304 1.7 3.5 0.00 0.45 0.29 63 1011.9
20260508000505 63 297 2.6 5.2 0.00 0.46 0.29 62 1011.8
20260508000006 64 302 2.6 6.1 0.00 0.47 0.29 61 1011.8
20260507235504 64 311 3.5 6.1 0.00 0.48 0.29 60 1011.7
20260507235005 65 304 3.5 9.6 0.00 0.49 0.29 60 1011.7
20260507234505 65 302 3.5 9.6 0.00 0.50 0.29 58 1011.8
20260507234005 66 305 1.7 7.0 0.00 0.50 0.29 59 1011.6
20260507233505 66 319 1.7 5.2 0.00 0.50 0.29 60 1011.8
20260507233005 66 335 1.7 7.0 0.00 0.50 0.29 59 1011.6
20260507232505 66 320 2.6 7.0 0.00 0.50 0.29 61 1011.6
20260507232005 66 287 3.5 7.8 0.00 0.50 0.29 61 1011.6
20260507231505 66 276 4.3 10.4 0.00 0.50 0.29 60 1011.4
20260507231005 66 282 5.2 10.4 0.00 0.50 0.29 59 1011.3
20260507230504 66 281 7.0 12.2 0.00 0.50 0.29 61 1011.3
20260507230005 66 277 7.0 13.0 0.00 0.50 0.29 59 1011.1
20260507225505 66 284 6.1 13.0 0.00 0.50 0.29 60 1011.0
20260507225005 66 282 5.2 13.9 0.00 0.50 0.29 60 1010.9
20260507224505 66 275 5.2 13.9 0.00 0.51 0.29 60 1010.9
20260507224005 66 279 5.2 12.2 0.00 0.51 0.29 62 1010.7
20260507223504 66 282 6.1 12.2 0.00 0.51 0.29 63 1010.6
20260507223005 67 280 6.1 12.2 0.00 0.51 0.29 63 1010.4
20260507222505 67 278 5.2 13.9 0.00 0.51 0.29 62 1010.2
20260507222005 68 279 3.5 13.9 0.00 0.51 0.29 61 1010.2
20260507221505 69 283 3.5 9.6 0.00 0.51 0.29 61 1010.1
20260507221005 69 291 3.5 7.8 0.00 0.51 0.29 61 1010.0
20260507220505 69 297 3.5 10.4 0.00 0.51 0.29 58 1010.0
20260507220005 70 292 3.5 10.4 0.00 0.51 0.29 59 1009.8
20260507215505 70 287 4.3 7.0 0.00 0.51 0.29 57 1009.6
20260507215005 71 298 5.2 8.7 0.00 0.51 0.29 57 1009.6
20260507214504 71 295 5.2 11.3 0.00 0.51 0.29 57 1009.4
20260507214005 72 291 5.2 11.3 0.00 0.51 0.29 56 1009.4
20260507213505 72 306 5.2 10.4 0.00 0.51 0.29 57 1009.5
20260507213004 72 300 5.2 10.4 0.00 0.51 0.29 57 1009.4
20260507212505 72 285 5.2 9.6 0.00 0.51 0.29 56 1009.3
20260507212005 73 285 5.2 10.4 0.00 0.51 0.29 56 1009.1
20260507211505 73 286 4.3 10.4 0.00 0.51 0.29 57 1009.1
20260507211005 74 285 5.2 9.6 0.00 0.51 0.29 55 1009.0
20260507210505 74 294 5.2 11.3 0.00 0.51 0.29 56 1008.9
20260507210005 74 295 5.2 11.3 0.00 0.51 0.29 57 1009.0
20260507205505 74 287 4.3 10.4 0.00 0.51 0.29 58 1008.9
20260507205005 75 280 4.3 9.6 0.00 0.51 0.29 57 1008.9
20260507204505 75 280 4.3 9.6 0.00 0.51 0.29 57 1009.0
20260507204005 75 288 5.2 11.3 0.00 0.51 0.29 58 1008.8
20260507203505 75 295 5.2 12.2 0.00 0.51 0.29 56 1008.8
20260507203005 75 302 5.2 12.2 0.00 0.51 0.29 59 1008.7
20260507202505 75 296 5.2 11.3 0.00 0.51 0.29 56 1008.6
20260507202005 76 288 5.2 10.4 0.00 0.51 0.29 59 1008.5
20260507201505 76 292 5.2 10.4 0.00 0.51 0.29 57 1008.6
20260507201005 76 286 5.2 9.6 0.00 0.51 0.29 59 1008.6
20260507200504 76 280 5.2 12.2 0.00 0.51 0.29 59 1008.5
20260507200005 76 284 4.3 13.9 0.00 0.51 0.29 58 1008.5
20260507195505 76 292 4.3 13.9 0.00 0.51 0.29 60 1008.3
20260507195005 76 309 4.3 8.7 0.00 0.51 0.29 61 1008.3
20260507194505 76 313 5.2 12.2 0.00 0.51 0.29 59 1008.3
20260507194005 76 311 4.3 12.2 0.00 0.51 0.29 57 1008.3
20260507193505 76 302 4.3 10.4 0.00 0.51 0.29 57 1008.4
20260507193005 76 296 4.3 10.4 0.00 0.51 0.29 58 1008.4
20260507192505 76 295 4.3 10.4 0.00 0.51 0.29 59 1008.5
20260507192005 76 291 5.2 8.7 0.00 0.51 0.29 59 1008.6
20260507191504 76 293 4.3 12.2 0.00 0.51 0.29 59 1008.6
20260507191006 77 296 3.5 12.2 0.00 0.51 0.29 60 1008.6
20260507190505 77 298 3.5 10.4 0.00 0.51 0.29 58 1008.5
20260507190005 77 279 2.6 7.8 0.00 0.51 0.29 63 1008.6
20260507185504 76 263 1.7 7.8 0.00 0.51 0.29 61 1008.5